[[{"header":{"parameterUnit":"m.s-1","parameterCategory":1,"la1":30.2991,"la2":30.254,"lo1":-89.0895,"lo2":-89.0444,"dy":0.0017,"dx":0.0017,"nx":28,"ny":28,"refTime":"2025-08-21T21:00:00:Z","depth":0,"parameterNumber":2,"parameterNumberName":"U-component_of_WINDS"},"data":[0,0,0,0,0,0,0,0,0,0,0,0,0,0,0,0,0,0,0,0,0,0,0,0,0,0,0,0,0,0,0,0,0,0,0,0,0,0,0,0,0,0,0,0,0,0,0,0,0,0,0,0,0,0,0,0,0,0,0.1346,0.1347,0,0.1454,0.1455,0.1456,0.1486,0.1485,0.1485,0.1484,0.1599,0.1603,0.1607,0,0,0,0,0,0,0,0,0,0,0,0,0,0.1167,0.117,0.1345,0.1347,0.1348,0.1454,0.1455,0.1457,0.1486,0.1485,0.1484,0.1484,0.1598,0.1603,0.1607,0,0,0,0,0,0,0,0,0,0,0,0,0,0.1257,0.1171,0.1345,0.1375,0.1379,0.1453,0.1455,0.1457,0.1486,0.1485,0.1484,0.1483,0.1597,0.1602,0.1608,0.1661,0,0,0.1624,0.1627,0,0,0,0,0,0,0,0,0.1252,0.1264,0.137,0.1373,0.1378,0.1455,0.1435,0.1526,0.1486,0.1446,0.1484,0.1483,0.1553,0.1562,0.1584,0.1666,0.1671,0.1625,0.1628,0.1631,0.1632,0,0,0,0,0,0,0,0.1246,0.1259,0.1388,0.1371,0.1376,0.1385,0.1396,0.1452,0.1503,0.1449,0.1451,0.1464,0.1555,0.1579,0.1587,0.1673,0.1625,0.163,0.1633,0.1635,0.1805,0.1806,0,0,0,0,0,0,0.1234,0.1254,0.1385,0.1392,0.1311,0.1389,0.1402,0.1431,0.1503,0.1513,0.1464,0.1465,0.157,0.1581,0.1591,0.1659,0.1631,0.1636,0.1639,0.1804,0.1805,0.1807,0,0,0,0,0,0,0.123,0.1245,0.1381,0.1323,0.1341,0.1393,0.1426,0.1434,0.1458,0.1514,0.1524,0.148,0.157,0.1584,0.1643,0.1664,0.1638,0.1643,0.1802,0.1804,0.1806,0.1795,0,0,0,0,0,0,0.1225,0.1244,0.1264,0.1324,0.1344,0.143,0.1427,0.1437,0.1467,0.1469,0.1531,0.1541,0.157,0.1635,0.1649,0.1671,0.1648,0.1801,0.1803,0.1805,0.1793,0.1796,0.1798,0,0,0,0,0,0.1218,0.1257,0.1264,0.128,0.137,0.1431,0.1443,0.1474,0.1469,0.149,0.1526,0.1539,0.1659,0.1641,0.1657,0.1681,0.18,0.1803,0.1805,0.1793,0.1795,0.1798,0,0,0,0,0,0,0.12,0.1265,0.1275,0.1334,0.1376,0.1435,0.1463,0.1476,0.1523,0.1522,0.1561,0.1575,0.1632,0.1662,0.1641,0.1736,0.173,0.1736,0.1714,0.1718,0.172,0.1712,0.1652,0,0,0,0,0,0.1202,0.1244,0.13,0.1347,0.1368,0.1411,0.1439,0.146,0.1506,0.1525,0.1565,0.161,0.1659,0.169,0.1737,0.1797,0.1812,0.1822,0.1824,0.1825,0.1831,0.1866,0.1871,0.1815,0.1815,0.1815,0,0,0.1208,0.1249,0.1274,0.1344,0.138,0.1424,0.1427,0.1473,0.1507,0.1532,0.1591,0.1622,0.1675,0.1736,0.1764,0.1763,0.1849,0.1829,0.183,0.1834,0.1869,0.1874,0.1879,0.1817,0.1817,0.1817,0,0,0.1243,0.1277,0.132,0.1355,0.1408,0.1437,0.1447,0.1505,0.1526,0.1585,0.1604,0.1646,0.1727,0.1765,0.1795,0.1842,0.1856,0.1856,0.1868,0.1902,0.1906,0.1911,0.1929,0.1934,0.1861,0.1861,0.1861,0,0.1244,0.131,0.1341,0.1387,0.1418,0.144,0.1485,0.1518,0.1584,0.1605,0.1602,0.1705,0.1743,0.1812,0.1824,0.1847,0.1861,0.185,0.1903,0.1907,0.1912,0.1929,0.1936,0.1861,0.1861,0.1861,0.1861,0,0.131,0.1356,0.1384,0.1446,0.148,0.1525,0.1564,0.1594,0.1612,0.1641,0.1701,0.1747,0.1804,0.1822,0.184,0.1894,0.1892,0.1895,0.189,0.1916,0.1934,0.1941,0.186,0.186,0.186,0.1861,0,0,0.1337,0.1414,0.1424,0.1453,0.1513,0.1549,0.1595,0.165,0.1676,0.172,0.1761,0.1829,0.1832,0.1866,0.1889,0.1918,0.1954,0.1918,0.192,0.1924,0.2018,0.2016,0.2023,0.1962,0.1964,0.1965,0.2014,0,0.138,0.1462,0.149,0.1559,0.1602,0.1624,0.1664,0.1706,0.1734,0.1776,0.1808,0.1856,0.1856,0.1877,0.1907,0.1943,0.1973,0.1939,0.2002,0.2004,0.1989,0.2032,0.203,0.2074,0.202,0.2022,0.2022,0,0.1441,0.1485,0.1557,0.1611,0.163,0.1666,0.1718,0.1757,0.1805,0.1824,0.186,0.1881,0.1931,0.1921,0.1992,0.1968,0.1995,0.2017,0.2019,0.2028,0.2016,0.2042,0.2088,0.2095,0.2033,0.2032,0.2031,0,0.1454,0.1532,0.1585,0.1608,0.1673,0.1697,0.1726,0.1772,0.1803,0.1849,0.187,0.1921,0.195,0.199,0.2024,0.2013,0.2092,0.2084,0.211,0.2109,0.2127,0.2126,0.2179,0.2142,0.2142,0.2142,0.2142,0,0.15,0.1543,0.1592,0.1625,0.1675,0.1707,0.1756,0.1786,0.1827,0.1867,0.1889,0.1927,0.1968,0.2012,0.2038,0.2094,0.2106,0.2124,0.2131,0.2123,0.2121,0.2142,0.2141,0.2144,0.2143,0.2143,0.2143,0,0.1524,0.1558,0.1618,0.1673,0.1688,0.1722,0.1771,0.1804,0.1833,0.1883,0.1897,0.1943,0.1995,0.2032,0.2099,0.2117,0.2177,0.2183,0.216,0.2164,0.2188,0.2186,0.2259,0.227,0.2224,0.2224,0.2225,0,0.1551,0.1585,0.1644,0.1671,0.1699,0.1744,0.1775,0.1808,0.184,0.1897,0.1924,0.1976,0.2021,0.2103,0.2143,0.2195,0.2204,0.2225,0.2212,0.2202,0.2205,0.2203,0.2208,0.2228,0.2228,0.2228,0.2229,0,0.1597,0.1612,0.1655,0.1704,0.174,0.1781,0.1822,0.1844,0.1885,0.192,0.1972,0.2006,0.2074,0.2127,0.2182,0.2213,0.2229,0.2232,0.2241,0.2234,0.222,0.2229,0.2167,0.2231,0.2231,0.2231,0.223,0.223,0.1625,0.1656,0.1702,0.1749,0.1783,0.1821,0.1855,0.1888,0.1931,0.1988,0.2006,0.206,0.2108,0.2183,0.2215,0.2259,0.2258,0.2271,0.2274,0.2277,0.2277,0.2211,0.2269,0.2269,0.2269,0.2269,0.2269,0,0.1672,0.1702,0.1745,0.1802,0.1839,0.1848,0.1894,0.1925,0.1973,0.2015,0.2057,0.2118,0.2169,0.2213,0.2266,0.2293,0.2302,0.2306,0.2305,0.2312,0.2275,0.2262,0.2298,0.2298,0.2298,0.2298,0.2298,0.2298,0.1701,0.1755,0.1775,0.1846,0.1876,0.1929,0.1954,0.199,0.2023,0.209,0.2132,0.2159,0.2202,0.2259,0.2306,0.2318,0.2337,0.234,0.2354,0.2318,0.2315,0.2312,0.23,0.2344,0.2344,0.2388,0.2389,0.2389]},{"header":{"parameterUnit":"m.s-1","parameterCategory":1,"la1":30.2991,"la2":30.254,"lo1":-89.0895,"lo2":-89.0444,"dy":0.0017,"dx":0.0017,"nx":28,"ny":28,"refTime":"2025-08-21T21:00:00:Z","depth":0,"parameterNumber":3,"parameterNumberName":"V-component_of_WINDS"},"data":[0,0,0,0,0,0,0,0,0,0,0,0,0,0,0,0,0,0,0,0,0,0,0,0,0,0,0,0,0,0,0,0,0,0,0,0,0,0,0,0,0,0,0,0,0,0,0,0,0,0,0,0,0,0,0,0,0,0,0.307,0.3071,0,0.3156,0.3157,0.3158,0.3146,0.3145,0.3144,0.3142,0.3235,0.3239,0.3243,0,0,0,0,0,0,0,0,0,0,0,0,0,0.29,0.2904,0.307,0.3071,0.3072,0.3155,0.3157,0.3158,0.3147,0.3145,0.3143,0.3142,0.3234,0.3239,0.3243,0,0,0,0,0,0,0,0,0,0,0,0,0,0.2979,0.2905,0.3069,0.3076,0.3078,0.3155,0.3157,0.3158,0.3147,0.3145,0.3143,0.3141,0.3233,0.3238,0.3244,0.3322,0,0,0.3261,0.3264,0,0,0,0,0,0,0,0,0.2975,0.2985,0.3074,0.3076,0.3078,0.3138,0.3131,0.3213,0.3148,0.3121,0.3142,0.314,0.3205,0.3213,0.3234,0.3326,0.333,0.3262,0.3265,0.3268,0.3269,0,0,0,0,0,0,0,0.2969,0.2982,0.3104,0.3075,0.3078,0.3076,0.3085,0.3147,0.3174,0.3123,0.3122,0.3132,0.3206,0.3228,0.3236,0.3332,0.3262,0.3267,0.327,0.3273,0.3493,0.3495,0,0,0,0,0,0,0.2961,0.2977,0.3101,0.3106,0.302,0.3081,0.3091,0.3121,0.3173,0.3179,0.3134,0.3132,0.322,0.3229,0.3239,0.3334,0.3268,0.3273,0.3276,0.3491,0.3494,0.3496,0,0,0,0,0,0,0.2958,0.2972,0.3098,0.3042,0.3057,0.3086,0.312,0.3124,0.3146,0.3182,0.3187,0.3152,0.3218,0.3231,0.3301,0.3337,0.3276,0.3281,0.3488,0.3492,0.3495,0.3525,0,0,0,0,0,0,0.2953,0.2971,0.3,0.3042,0.306,0.3157,0.3122,0.3127,0.3156,0.3153,0.32,0.3206,0.3218,0.3293,0.3307,0.3344,0.3285,0.3485,0.349,0.3494,0.3521,0.3529,0.3536,0,0,0,0,0,0.2947,0.3006,0.3001,0.3016,0.3097,0.3159,0.3169,0.318,0.3159,0.3189,0.3211,0.3204,0.3331,0.33,0.3316,0.3355,0.3483,0.3488,0.3493,0.3517,0.3527,0.3536,0,0,0,0,0,0,0.2969,0.3012,0.3007,0.3081,0.3116,0.3157,0.3195,0.3191,0.3234,0.323,0.3244,0.3254,0.3325,0.3347,0.3312,0.3434,0.3404,0.3413,0.3417,0.3427,0.3434,0.3428,0.329,0,0,0,0,0,0.2982,0.3027,0.3063,0.3125,0.3142,0.3166,0.3193,0.3198,0.3236,0.3251,0.3279,0.3317,0.3366,0.3397,0.3444,0.3524,0.3535,0.3559,0.3567,0.3573,0.3581,0.3625,0.3637,0.3514,0.3514,0.3514,0,0,0.301,0.3039,0.3067,0.313,0.3158,0.3206,0.3178,0.323,0.3266,0.326,0.3327,0.3349,0.3393,0.3468,0.3502,0.3488,0.3617,0.358,0.3584,0.3589,0.3632,0.3644,0.3654,0.3518,0.3517,0.3517,0,0,0.3086,0.3112,0.3167,0.3195,0.3237,0.3252,0.3265,0.3306,0.332,0.3387,0.3383,0.3427,0.351,0.3542,0.3568,0.3656,0.3652,0.3671,0.3712,0.3755,0.3765,0.3773,0.3805,0.3817,0.3679,0.3679,0.3679,0,0.3116,0.3187,0.3196,0.3248,0.3276,0.3271,0.3327,0.3355,0.341,0.3431,0.3414,0.3518,0.3547,0.363,0.3651,0.3673,0.3689,0.3666,0.3762,0.3771,0.3779,0.381,0.3822,0.3681,0.3681,0.3681,0.368,0,0.3222,0.3271,0.3311,0.3363,0.3396,0.345,0.3468,0.3501,0.3504,0.3521,0.359,0.3625,0.3678,0.3698,0.3702,0.3782,0.3772,0.3759,0.3729,0.3793,0.3822,0.3834,0.3684,0.3683,0.3683,0.3682,0,0,0.3314,0.337,0.3385,0.3408,0.3454,0.3493,0.3548,0.3598,0.3626,0.3665,0.3712,0.3782,0.377,0.3801,0.3808,0.3846,0.3914,0.3828,0.3829,0.3843,0.4005,0.4015,0.4029,0.3911,0.3914,0.3915,0.4002,0,0.3395,0.3489,0.3499,0.3584,0.363,0.3626,0.3674,0.3708,0.3726,0.3769,0.3789,0.3839,0.3819,0.3837,0.3874,0.3898,0.3947,0.3892,0.3957,0.3959,0.3946,0.4044,0.4054,0.4134,0.4013,0.4015,0.4017,0,0.3501,0.3541,0.363,0.367,0.369,0.3732,0.378,0.3821,0.386,0.387,0.3904,0.3907,0.3965,0.3932,0.4013,0.3975,0.4003,0.4018,0.4022,0.4029,0.3992,0.4054,0.416,0.4172,0.4034,0.4033,0.4032,0,0.356,0.3636,0.37,0.372,0.3768,0.3798,0.382,0.3856,0.3887,0.3929,0.3949,0.3998,0.4025,0.4064,0.408,0.4055,0.416,0.4129,0.4172,0.4171,0.4194,0.4193,0.4307,0.4211,0.4211,0.4211,0.4211,0,0.3649,0.3704,0.3727,0.3766,0.3827,0.3839,0.3901,0.3921,0.3954,0.3998,0.3998,0.404,0.4059,0.4104,0.4118,0.4183,0.4195,0.4207,0.421,0.4207,0.4205,0.4225,0.422,0.4214,0.4213,0.4213,0.4212,0,0.3725,0.3742,0.3811,0.385,0.3861,0.3905,0.394,0.3978,0.3995,0.4051,0.4065,0.4093,0.4146,0.4166,0.4232,0.4241,0.4317,0.4315,0.4303,0.4304,0.4345,0.4341,0.4476,0.4495,0.4387,0.4388,0.4389,0,0.378,0.3822,0.3866,0.3894,0.3917,0.3963,0.3993,0.4007,0.4039,0.4087,0.412,0.4173,0.4215,0.4301,0.4328,0.4379,0.4379,0.4422,0.4386,0.4382,0.438,0.4377,0.4382,0.4429,0.443,0.4431,0.4432,0,0.3878,0.3884,0.3927,0.3973,0.4009,0.4046,0.4082,0.4106,0.4126,0.4162,0.4215,0.4249,0.4315,0.4368,0.4419,0.4443,0.4442,0.4443,0.4456,0.4454,0.4445,0.4451,0.4322,0.444,0.4439,0.4439,0.4438,0.4438,0.3945,0.3983,0.4019,0.4067,0.4095,0.4129,0.4167,0.4189,0.4233,0.4287,0.4293,0.4351,0.439,0.4459,0.4485,0.4532,0.4521,0.4539,0.4544,0.4548,0.4551,0.4437,0.4542,0.4541,0.4541,0.4541,0.4541,0,0.4043,0.4066,0.411,0.416,0.4198,0.4191,0.4231,0.4264,0.4314,0.435,0.4392,0.4454,0.4506,0.4537,0.4588,0.462,0.4621,0.4633,0.4631,0.4637,0.4558,0.4542,0.4632,0.4632,0.4632,0.4632,0.4632,0.4632,0.4098,0.4161,0.4172,0.4249,0.4272,0.4328,0.4351,0.4383,0.4412,0.4481,0.4523,0.4542,0.4576,0.4631,0.4678,0.4686,0.4705,0.4719,0.4726,0.4652,0.4643,0.4634,0.4619,0.4723,0.4723,0.4801,0.4802,0.4803]}]]